This demonstration page uses our WeatherBlox Daily Observations layout. Learn more.

Hourly Observations for May 15, 2015

Temp ( °F °C ) Dew Point ( °F °C ) Humidity (%) Winds ( mph kmh ) Pressure ( in mb ) Visibility ( mi km ) Precip ( " mm )
12:15 am 00:15 Clear 63 17 57 14 83 83 SSE 10 17 29.85 1011 10 16.09344 0 0
12:35 am 00:35 Clear 63 17 59 15 88 88 SSE 14 22 29.85 1011 10 16.09344 0 0
12:55 am 00:55 Clear 63 17 59 15 88 88 SSE 12 19 29.85 1011 10 16.09344 0 0
1:15 am 01:15 Clear 63 17 59 15 88 88 SSE 12 19 29.85 1011 10 16.09344 0 0
1:35 am 01:35 Clear 61 16 57 14 88 88 SSE 9 15 29.85 1011 10 16.09344 0 0
1:55 am 01:55 Clear 63 17 59 15 88 88 SSE 9 15 29.85 1011 10 16.09344 0 0
2:15 am 02:15 Clear 61 16 57 14 88 88 SSE 9 15 29.85 1011 10 16.09344 0 0
2:35 am 02:35 Clear 61 16 57 14 88 88 SSE 6 9 29.83 1010 10 16.09344 0 0
2:55 am 02:55 Clear with Nearby Thunderstorms 59 15 57 14 94 94 SSE 9 15 29.83 1010 10 16.09344 0 0
3:15 am 03:15 Clear 59 15 57 14 94 94 ESE 7 11 29.8 1009 10 16.09344 0 0
3:35 am 03:35 Clear 59 15 57 14 94 94 SE 9 15 29.8 1009 10 16.09344 0 0
3:55 am 03:55 Clear with Nearby Thunderstorms 59 15 57 14 94 94 SE 9 15 29.83 1010 10 16.09344 0 0
4:15 am 04:15 Clear 59 15 57 14 94 94 SSE 10 17 29.83 1010 10 16.09344 0 0
4:35 am 04:35 Clear with Nearby Thunderstorms 61 16 59 15 94 94 S 10 17 29.83 1010 10 16.09344 0 0
4:55 am 04:55 Partly Cloudy with Light Thunderstorms 61 16 59 15 94 94 S 7 11 29.83 1010 10 16.09344 0 0
5:15 am 05:15 Cloudy with Light Thunderstorms 61 16 59 15 94 94 S 9 15 29.83 1010 10 16.09344 0 0
5:35 am 05:35 Cloudy with Light Thunderstorms 61 16 59 15 94 94 S 10 17 29.83 1010 10 16.09344 0.01 0.254
5:55 am 05:55 Cloudy with Thunderstorms 61 16 59 15 94 94 SSE 8 13 29.83 1010 7 11.265408 0.04 1.016
6:15 am 06:15 Cloudy with Heavy Thunderstorms 59 15 57 14 94 94 SSE 12 19 29.88 1012 5 8.04672 0.14 3.556
6:35 am 06:35 Cloudy 59 15 55 13 88 88 SSE 18 30 29.88 1012 7 11.265408 0.21 5.334
6:55 am 06:55 Cloudy with Rain 59 15 54 12 82 82 SSE 21 33 29.88 1012 10 16.09344 0.23 5.842
7:15 am 07:15 Cloudy with Light Rain 59 15 54 12 82 82 SSE 15 24 29.88 1012 10 16.09344 0 0
7:35 am 07:35 Cloudy 57 14 54 12 88 88 SSE 13 20 29.88 1012 10 16.09344 0 0
7:55 am 07:55 Cloudy with Rain 57 14 54 12 88 88 SE 13 20 29.88 1012 10 16.09344 0.01 0.254
8:15 am 08:15 Cloudy with Light Rain 59 15 54 12 82 82 SE 15 24 29.88 1012 10 16.09344 0.01 0.254
8:35 am 08:35 Mostly Cloudy with Light Rain 61 16 52 11 72 72 SSE 13 20 29.85 1011 10 16.09344 0.03 0.762
8:55 am 08:55 Partly Cloudy 63 17 55 13 77 77 ESE 6 9 29.85 1011 10 16.09344 0.03 0.762
9:15 am 09:15 Partly Cloudy 63 17 57 14 83 83 SSE 6 9 29.85 1011 10 16.09344 0 0
9:35 am 09:35 Sunny 64 18 57 14 78 78 SE 9 15 29.85 1011 10 16.09344 0 0
9:55 am 09:55 Sunny 66 19 57 14 73 73 SSE 14 22 29.83 1010 10 16.09344 0 0
10:15 am 10:15 Sunny 66 19 57 14 73 73 SE 16 26 29.8 1009 10 16.09344 0 0
10:35 am 10:35 Sunny 68 20 57 14 69 69 SSE 10 17 29.8 1009 10 16.09344 0 0
10:55 am 10:55 Sunny 68 20 57 14 69 69 SE 12 19 29.8 1009 10 16.09344 0 0
11:15 am 11:15 Sunny 68 20 57 14 69 69 SSE 12 19 29.77 1008 10 16.09344 0 0
11:35 am 11:35 Sunny 72 22 59 15 65 65 SSE 12 19 29.77 1008 10 16.09344 0 0
11:55 am 11:55 Sunny 72 22 59 15 65 65 SSE 12 19 29.77 1008 10 16.09344 0 0
12:15 pm 12:15 Sunny 72 22 55 13 57 57 S 9 15 29.74 1007 10 16.09344 0 0
12:35 pm 12:35 Sunny 73 23 55 13 53 53 S 10 17 29.77 1008 10 16.09344 0 0
12:55 pm 12:55 Partly Cloudy 73 23 55 13 53 53 S 12 19 29.74 1007 10 16.09344 0 0
1:15 pm 13:15 Partly Cloudy 73 23 57 14 57 57 SSE 14 22 29.74 1007 10 16.09344 0 0
1:35 pm 13:35 Partly Cloudy 73 23 57 14 57 57 SE 16 26 29.71 1006 10 16.09344 0 0
1:55 pm 13:55 Partly Cloudy 75 24 57 14 54 54 SE 13 20 29.71 1006 10 16.09344 0 0
2:15 pm 14:15 Sunny 75 24 57 14 54 54 SSE 12 19 29.71 1006 10 16.09344 0 0
2:35 pm 14:35 Partly Cloudy 73 23 57 14 57 57 SSE 17 28 29.68 1005 10 16.09344 0 0
2:55 pm 14:55 Partly Cloudy 75 24 59 15 57 57 SE 14 22 29.68 1005 10 16.09344 0 0
3:15 pm 15:15 Partly Cloudy 75 24 59 15 57 57 SE 17 28 29.68 1005 10 16.09344 0 0
3:35 pm 15:35 Partly Cloudy 77 25 57 14 51 51 SE 17 28 29.65 1004 10 16.09344 0 0
3:55 pm 15:55 Partly Cloudy 77 25 57 14 51 51 SE 20 31 29.65 1004 10 16.09344 0 0
4:15 pm 16:15 Partly Cloudy 77 25 59 15 54 54 SE 21 33 29.65 1004 10 16.09344 0 0
4:35 pm 16:35 Partly Cloudy 75 24 55 13 50 50 SE 25 41 29.68 1005 10 16.09344 0 0
4:55 pm 16:55 Partly Cloudy 77 25 55 13 47 47 SE 23 37 29.62 1003 10 16.09344 0 0
5:15 pm 17:15 Partly Cloudy 75 24 55 13 50 50 SE 23 37 29.65 1004 10 16.09344 0 0
5:35 pm 17:35 Partly Cloudy 73 23 55 13 53 53 SE 20 31 29.65 1004 10 16.09344 0 0
5:55 pm 17:55 Sunny 73 23 55 13 53 53 SE 21 33 29.65 1004 10 16.09344 0 0
6:15 pm 18:15 Sunny 75 24 57 14 54 54 SE 24 39 29.65 1004 10 16.09344 0 0
6:35 pm 18:35 Partly Cloudy 73 23 57 14 57 57 SE 23 37 29.65 1004 10 16.09344 0 0
6:55 pm 18:55 Partly Cloudy 73 23 59 15 61 61 SE 18 30 29.65 1004 10 16.09344 0 0
7:15 pm 19:15 Sunny 72 22 57 14 61 61 SE 20 31 29.65 1004 10 16.09344 0 0
7:35 pm 19:35 Sunny 72 22 57 14 61 61 SE 17 28 29.65 1004 10 16.09344 0 0
7:55 pm 19:55 Sunny 72 22 59 15 65 65 SE 21 33 29.62 1003 10 16.09344 0 0
8:15 pm 20:15 Sunny 70 21 59 15 69 69 SE 20 31 29.65 1004 10 16.09344 0 0
8:35 pm 20:35 Sunny 70 21 61 16 73 73 ESE 21 33 29.65 1004 10 16.09344 0 0
8:55 pm 20:55 Clear 68 20 61 16 78 78 SE 18 30 29.68 1005 10 16.09344 0 0
9:15 pm 21:15 Partly Cloudy 68 20 61 16 78 78 ESE 22 35 29.68 1005 10 16.09344 0 0
9:35 pm 21:35 Mostly Cloudy with Nearby Thunderstorms 68 20 61 16 78 78 SE 23 37 29.68 1005 10 16.09344 0 0
9:55 pm 21:55 Mostly Cloudy with Light Rain 66 19 63 17 88 88 SE 17 28 29.68 1005 10 16.09344 0 0
10:15 pm 22:15 Mostly Cloudy 66 19 63 17 88 88 SE 20 31 29.68 1005 10 16.09344 0 0
10:35 pm 22:35 Partly Cloudy 66 19 63 17 88 88 SE 20 31 29.68 1005 10 16.09344 0 0
10:55 pm 22:55 Clear 66 19 63 17 88 88 SE 21 33 29.68 1005 10 16.09344 0 0
11:15 pm 23:15 Clear 66 19 63 17 88 88 SE 22 35 29.68 1005 10 16.09344 0 0
11:35 pm 23:35 Clear 66 19 63 17 88 88 SE 24 39 29.68 1005 10 16.09344 0 0
11:55 pm 23:55 Clear 66 19 63 17 88 88 SSE 24 39 29.65 1004 10 16.09344 0 0

Powered by AerisWeather